Ludington, MI

10:46 PM EDT on October 18, 2019 (GMT -0400)
Mason County

Weather History for KLDM - August, 2019

Change the Weather History Date:

Saturday, August 10, 2019

  Actual Average Record
Temperature  
Mean Temperature 65 °F -  
Max Temperature 77 °F 79 °F 89 °F (1988)
Min Temperature 53 °F 57 °F 40 °F (1972)
Growing Degree Days 15 (Base 50)    
Moisture  
Dew Point 55 °F    
Average Humidity 74    
Maximum Humidity 98    
Minimum Humidity 37    
Precipitation  
Precipitation 0.00 in - - ()
Sea Level Pressure  
Sea Level Pressure 29.99 in    
Wind  
Wind Speed 1 mph (NNW)    
Max Wind Speed 9 mph    
Max Gust Speed -    
Visibility 9 miles    
Events      
Averages and records for this station are not official NWS values.
T = Trace of Precipitation, MM = Missing Value Source: NWS Daily Summary

Daily Weather History Graph

Daily Weather History Graph

Search for Another Location

Airport or City:

Astronomy

Aug. 10, 2019 Rise Set
Actual Time 6:43 AM EDT 8:57 PM EDT
Civil Twilight 6:11 AM EDT 9:29 PM EDT
Nautical Twilight 5:32 AM EDT 10:08 PM EDT
Astronomical Twilight 4:48 AM EDT 10:52 PM EDT
Moon 5:43 PM EDT (8/10) 2:16 AM EDT (8/10)
Length of Visible Light 15h 17m
Length of Day
14h 13m
Waxing Gibbous, 79% of the Moon is Illuminated
Aug 10
Waxing Gibbous
Aug 15
Full
Aug 23
Last Quarter
Aug 30
New
Sep 5
First Quarter

Hourly Weather History & Observations

Time (EDT) Temp. Dew Point Humidity Pressure Visibility Wind Dir Wind Speed Gust Speed Precip Events Conditions
12:17 AM 57.2 °F 56.5 °F 97% 29.95 in 10.0 mi Calm Calm - N/A   Clear
12:35 AM 58.1 °F 57.2 °F 97% 29.95 in 4.0 mi Calm Calm - N/A   Clear
12:55 AM 58.1 °F 57.2 °F 97% 29.95 in 7.0 mi Calm Calm - N/A   Clear
1:15 AM 58.3 °F 57.4 °F 97% 29.95 in 7.0 mi Calm Calm - N/A   Clear
1:20 AM 58.3 °F 57.4 °F 97% 29.95 in 10.0 mi Calm Calm - N/A   Clear
1:38 AM 57.9 °F 57.2 °F 97% 29.95 in 1.0 mi Calm Calm - N/A   Mist
1:56 AM 57.6 °F 56.8 °F 97% 29.95 in 10.0 mi Calm Calm - N/A   Clear
2:15 AM 54.9 °F 54.1 °F 97% 29.95 in 7.0 mi Calm Calm - N/A   Clear
2:35 AM 55.6 °F 54.9 °F 97% 29.95 in 4.0 mi Calm Calm - N/A   Scattered Clouds
2:36 AM 55.6 °F 54.9 °F 97% 29.95 in 4.0 mi Calm Calm - N/A   Scattered Clouds
2:59 AM 55.6 °F 54.9 °F 97% 29.95 in 10.0 mi Calm Calm - N/A   Clear
3:17 AM 55.2 °F 54.5 °F 97% 29.95 in 10.0 mi Calm Calm - N/A   Clear
3:35 AM 55.9 °F 55.4 °F 98% 29.95 in 1.0 mi Calm Calm - N/A   Mist
3:55 AM 54.9 °F 54.3 °F 98% 29.95 in 7.0 mi Calm Calm - N/A   Clear
3:56 AM 55.0 °F 54.3 °F 97% 29.95 in 7.0 mi Calm Calm - N/A   Clear
4:15 AM 56.1 °F 55.4 °F 97% 29.96 in 10.0 mi Calm Calm - N/A   Clear
4:20 AM 55.6 °F 54.9 °F 97% 29.96 in 10.0 mi Calm Calm - N/A   Clear
4:38 AM 54.9 °F 54.1 °F 97% 29.96 in 7.0 mi Calm Calm - N/A   Clear
4:56 AM 55.2 °F 54.5 °F 97% 29.96 in 7.0 mi Calm Calm - N/A   Clear
5:15 AM 54.5 °F 53.8 °F 97% 29.97 in 1.2 mi Calm Calm - N/A   Mist
5:35 AM 56.1 °F 55.4 °F 97% 29.97 in 10.0 mi Calm Calm - N/A   Clear
5:36 AM 56.1 °F 55.4 °F 97% 29.97 in 10.0 mi Calm Calm - N/A   Clear
5:59 AM 55.8 °F 55.0 °F 97% 29.97 in 10.0 mi Calm Calm - N/A   Clear
6:17 AM 54.5 °F 53.8 °F 97% 29.97 in 7.0 mi NE 3.5 mph - N/A   Clear
6:35 AM 54.1 °F 53.2 °F 97% 29.97 in 10.0 mi Calm Calm - N/A   Clear
6:55 AM 54.3 °F 53.6 °F 97% 29.98 in 10.0 mi Calm Calm - N/A   Clear
7:15 AM 53.6 °F 52.9 °F 97% 29.99 in 7.0 mi Calm Calm - N/A   Clear
7:20 AM 53.8 °F 53.1 °F 97% 29.99 in 7.0 mi Calm Calm - N/A   Clear
7:38 AM 55.6 °F 54.9 °F 97% 29.99 in 10.0 mi Calm Calm - N/A   Clear
7:56 AM 57.2 °F 56.5 °F 97% 30.01 in 10.0 mi Calm Calm - N/A   Clear
8:15 AM 59.7 °F 57.4 °F 92% 30.01 in 10.0 mi Calm Calm - N/A   Clear
8:35 AM 61.2 °F 58.1 °F 90% 30.01 in 10.0 mi ESE 3.5 mph - N/A   Clear
8:59 AM 63.1 °F 58.5 °F 85% 30.02 in 10.0 mi ESE 3.5 mph - N/A   Clear
9:17 AM 65.1 °F 59.2 °F 81% 30.02 in 10.0 mi SE 3.5 mph - N/A   Clear
9:35 AM 66.4 °F 59.2 °F 78% 30.02 in 10.0 mi ESE 3.5 mph - N/A   Clear
9:36 AM 66.6 °F 59.4 °F 78% 30.02 in 10.0 mi ESE 3.5 mph - N/A   Clear
9:55 AM 68.2 °F 59.4 °F 73% 30.02 in 10.0 mi SE 4.6 mph - N/A   Clear
10:15 AM 69.4 °F 59.5 °F 71% 30.01 in 10.0 mi SE 3.5 mph - N/A   Clear
10:38 AM 71.2 °F 58.6 °F 64% 30.02 in 10.0 mi East 3.5 mph - N/A   Clear
10:56 AM 72.1 °F 57.0 °F 59% 30.02 in 10.0 mi East 4.6 mph - N/A   Clear
11:15 AM 72.9 °F 55.4 °F 54% 30.02 in 10.0 mi Calm Calm - N/A   Clear
11:16 AM 72.9 °F 55.6 °F 55% 30.02 in 10.0 mi North 3.5 mph - N/A   Clear
11:35 AM 73.6 °F 54.3 °F 51% 30.02 in 10.0 mi North 3.5 mph - N/A   Clear
11:36 AM 73.8 °F 54.5 °F 51% 30.02 in 10.0 mi Calm Calm - N/A   Clear
11:59 AM 74.8 °F 54.1 °F 48% 30.02 in 10.0 mi North 4.6 mph - N/A   Clear
12:17 PM 74.7 °F 53.1 °F 47% 30.02 in 10.0 mi NNW 4.6 mph - N/A   Clear
12:35 PM 76.1 °F 53.2 °F 45% 30.02 in 10.0 mi NW 4.6 mph - N/A   Clear
12:55 PM 75.9 °F 53.4 °F 45% 30.03 in 10.0 mi WNW 4.6 mph - N/A   Clear
12:56 PM 75.7 °F 53.6 °F 46% 30.03 in 10.0 mi NW 6.9 mph - N/A   Clear
1:15 PM 76.6 °F 50.9 °F 40% 30.03 in 10.0 mi NW 5.8 mph - N/A   Clear
1:38 PM 76.6 °F 50.2 °F 39% 30.02 in 10.0 mi WNW 8.1 mph - N/A   Clear
1:56 PM 76.5 °F 49.6 °F 39% 30.02 in 10.0 mi NW 4.6 mph - N/A   Clear
2:15 PM 77.2 °F 49.3 °F 37% 30.01 in 10.0 mi North 8.1 mph - N/A   Clear
2:35 PM 76.6 °F 49.1 °F 38% 30.02 in 10.0 mi NNW 8.1 mph - N/A   Clear
2:36 PM 76.5 °F 49.1 °F 38% 30.02 in 10.0 mi North 9.2 mph - N/A   Clear
2:59 PM 77.4 °F 50.2 °F 38% 30.01 in 10.0 mi WNW 5.8 mph - N/A   Clear
3:17 PM 77.2 °F 51.4 °F 41% 30.01 in 10.0 mi WNW 6.9 mph - N/A   Clear
3:35 PM 76.8 °F 51.3 °F 41% 30.01 in 10.0 mi NNW 5.8 mph - N/A   Clear
3:55 PM 76.3 °F 51.3 °F 41% 30.01 in 10.0 mi NW 5.8 mph - N/A   Clear
4:15 PM 76.5 °F 52.0 °F 42% 30.00 in 10.0 mi NW 4.6 mph - N/A   Clear
4:20 PM 75.7 °F 50.4 °F 41% 30.00 in 10.0 mi WNW 5.8 mph - N/A   Clear
4:38 PM 75.4 °F 51.4 °F 43% 30.01 in 10.0 mi WNW 5.8 mph - N/A   Clear
4:56 PM 75.0 °F 52.3 °F 45% 30.01 in 10.0 mi WNW 5.8 mph - N/A   Clear
5:15 PM 75.6 °F 50.4 °F 41% 30.00 in 10.0 mi NNW 4.6 mph - N/A   Clear
5:35 PM 76.1 °F 51.4 °F 42% 30.00 in 10.0 mi NNW 4.6 mph - N/A   Clear
5:59 PM 75.7 °F 52.3 °F 44% 30.00 in 10.0 mi WNW 3.5 mph - N/A   Clear
6:17 PM 74.3 °F 53.4 °F 48% 30.01 in 10.0 mi NW 3.5 mph - N/A   Clear
6:36 PM 74.8 °F 54.3 °F 49% 30.00 in 10.0 mi WNW 4.6 mph - N/A   Clear
6:55 PM 74.1 °F 54.3 °F 50% 30.00 in 10.0 mi Calm Calm - N/A   Clear
7:15 PM 71.2 °F 56.3 °F 59% 30.00 in 10.0 mi Calm Calm - N/A   Clear
7:38 PM 73.8 °F 52.3 °F 47% 30.00 in 10.0 mi Calm Calm - N/A   Clear
7:56 PM 71.4 °F 59.9 °F 67% 30.00 in 10.0 mi Calm Calm - N/A   Clear
8:15 PM 70.9 °F 58.6 °F 65% 30.00 in 10.0 mi Calm Calm - N/A   Clear
8:35 PM 67.5 °F 58.5 °F 73% 30.00 in 10.0 mi Calm Calm - N/A   Clear
8:59 PM 65.3 °F 58.8 °F 80% 29.99 in 10.0 mi Calm Calm - N/A   Clear
9:17 PM 64.4 °F 58.3 °F 80% 30.00 in 10.0 mi Calm Calm - N/A   Clear
9:35 PM 63.0 °F 58.3 °F 85% 30.00 in 10.0 mi Calm Calm - N/A   Clear
9:36 PM 63.0 °F 58.3 °F 85% 30.00 in 10.0 mi Calm Calm - N/A   Clear
9:55 PM 60.6 °F 57.4 °F 89% 30.01 in 10.0 mi Calm Calm - N/A   Clear
9:56 PM 60.8 °F 57.4 °F 88% 30.01 in 10.0 mi Calm Calm - N/A   Clear
10:15 PM 61.3 °F 57.0 °F 86% 30.01 in 10.0 mi Calm Calm - N/A   Clear
10:38 PM 59.4 °F 57.0 °F 92% 30.01 in 10.0 mi Calm Calm - N/A   Clear
10:56 PM 59.0 °F 57.7 °F 96% 30.00 in 10.0 mi Calm Calm - N/A   Clear
11:15 PM 58.5 °F 57.7 °F 97% 30.01 in 10.0 mi Calm Calm - N/A   Clear
11:16 PM 58.5 °F 57.7 °F 97% 30.01 in 10.0 mi Calm Calm - N/A   Clear
11:35 PM 57.0 °F 56.1 °F 97% 30.00 in 10.0 mi Calm Calm - N/A   Clear
11:59 PM 57.0 °F 56.1 °F 97% 30.00 in 10.0 mi Calm Calm - N/A   Clear